Location: Newark
(21.8258°S, 114.1586°E)
Time: 19:16:34
(UTC+00:00)

Hubble Space Telescope - Pass Details

Date: 15 December 2019
Orbit: 536 x 540 km, 28.5° (Epoch: 28 January)

Event Time Altitude Azimuth Distance (km) Brightness Sun altitude
Rises 12:18:29 0° 250° (WSW) 2,685 5.9 -16.3°
Reaches altitude 10° 12:20:54 10° 240° (WSW) 1,793 4.8 -16.7°
Maximum altitude 12:24:42 34° 174° (S) 903 2.1 -17.4°
Enters shadow 12:27:17 17° 118° (ESE) 1,392 2.6 -17.9°
